User: anonymous   Login
Location: Unspecified
(0.0000°N, 0.0000°E)
Time: 14:53:59
(UTC+02:00)
Language:

Resurs 1-3 - Orbit

View from above orbital plane
View from above orbital plane
View from above satellite
View from above satellite

Ground track
Ground track

The orbit data is extracted from the following two-line orbital elements,

1 23342U 94074A   17268.73119262 +.00000040 +00000-0 +12454-4 0  9997
2 23342 098.0691 307.3969 0001837 107.0307 253.1105 14.79286063232373
Epoch (UTC): 25 September 2017 17:32:55
Eccentricity: 0.0001837
inclination: 98.0691°
perigee height: 630 km
apogee height: 633 km
right ascension of ascending node: 307.3969°
argument of perigee: 107.0307°
revolutions per day: 14.79286063
mean anomaly at epoch: 253.1105°
orbit number at epoch: 23237

The dashed part of the orbit path shows where the satellite is in the earth's shadow,  

DLR